Location: downtown San Diego
(32.7310°N, 117.1990°W)
Time: 17:15:41
(UTC-07:00)

Cosmos 1603 - Pass Details

Date: 19 May 2017
Orbit: 832 x 858 km, 71.0° (Epoch: 22 September)

Event Time Altitude Azimuth Distance (km) Brightness Sun altitude
Rises 20:01:43 0° 208° (SSW) 3,403 6.9 -4.2°
Reaches altitude 10° 20:04:10 10° 211° (SSW) 2,474 6.2 -4.7°
Maximum altitude 20:09:48 63° 292° (WNW) 954 4.4 -5.7°
Drops below altitude 10° 20:15:30 10° 13° (NNE) 2,495 6.4 -6.8°
Sets 20:18:00 0° 17° (NNE) 3,435 7.0 -7.2°
